Location: Ar Ranvel
(48.3000°N, 4.8833°W)
Time: 23:54:43
(UTC+00:00)

FALCON 9 DEB - Pass Details

Date: 31 October 2021
Orbit: 417 x 427 km, 53.0° (Epoch: 28 November)

Event Time Altitude Azimuth Distance (km) Brightness Sun altitude
Rises 17:45:13 0° 238° (WSW) 2,388 8.5 -7.7°
Reaches altitude 10° 17:47:19 10° 236° (WSW) 1,525 7.2 -8.1°
Maximum altitude 17:50:44 76° 151° (SSE) 448 3.1 -8.6°
Enters shadow 17:53:49 12° 66° (ENE) 1,389 5.0 -9.1°
